Time,TemperatureF,DewpointF,PressureIn,WindDirection,WindDirectionDegrees,WindSpeedMPH,WindSpeedGustMPH,Humidity,HourlyPrecipIn,Conditions,Clouds,dailyrainin,SoftwareType,DateUTC
2013-05-01 00:00:00,58.3,55.0,30.13,ENE,68,0.0,0.0,88,0.00,,,0.00,weatherlink.com 1.10,2013-05-01 04:00:00,
2013-05-01 00:15:00,57.8,55.0,30.14,ENE,68,0.0,1.0,89,0.00,,,0.00,weatherlink.com 1.10,2013-05-01 04:15:00,
2013-05-01 00:30:00,57.3,54.0,30.14,ENE,68,0.0,0.0,89,0.00,,,0.00,weatherlink.com 1.10,2013-05-01 04:30:00,
2013-05-01 00:45:00,56.9,54.0,30.14,ENE,68,0.0,0.0,89,0.00,,,0.00,weatherlink.com 1.10,2013-05-01 04:45:00,
2013-05-01 01:00:00,56.5,54.0,30.15,ENE,68,0.0,0.0,90,0.00,,,0.00,weatherlink.com 1.10,2013-05-01 05:00:00,
2013-05-01 01:15:00,56.2,53.0,30.14,ENE,68,0.0,0.0,90,0.00,,,0.00,weatherlink.com 1.10,2013-05-01 05:15:00,
2013-05-01 01:30:00,55.7,53.0,30.15,ENE,68,0.0,0.0,91,0.00,,,0.00,weatherlink.com 1.10,2013-05-01 05:30:00,
2013-05-01 01:45:00,55.4,53.0,30.15,ENE,68,0.0,0.0,91,0.00,,,0.00,weatherlink.com 1.10,2013-05-01 05:45:00,
2013-05-01 02:00:00,55.4,53.0,30.14,ENE,68,0.0,0.0,92,0.00,,,0.00,weatherlink.com 1.10,2013-05-01 06:00:00,
2013-05-01 02:15:00,55.3,53.0,30.15,ENE,68,0.0,0.0,91,0.00,,,0.00,weatherlink.com 1.10,2013-05-01 06:15:00,
2013-05-01 02:30:00,54.8,53.0,30.15,ENE,68,0.0,0.0,92,0.00,,,0.00,weatherlink.com 1.10,2013-05-01 06:30:00,
2013-05-01 02:45:00,54.5,52.0,30.15,ENE,68,0.0,0.0,92,0.00,,,0.00,weatherlink.com 1.10,2013-05-01 06:45:00,
2013-05-01 03:00:00,54.1,52.0,30.15,ENE,68,0.0,0.0,92,0.00,,,0.00,weatherlink.com 1.10,2013-05-01 07:00:00,
2013-05-01 03:15:00,53.6,52.0,30.15,ENE,68,0.0,0.0,93,0.00,,,0.00,weatherlink.com 1.10,2013-05-01 07:15:00,
2013-05-01 03:30:00,53.3,52.0,30.15,ENE,68,0.0,0.0,94,0.00,,,0.00,weatherlink.com 1.10,2013-05-01 07:30:00,
2013-05-01 03:45:00,53.1,52.0,30.15,ENE,68,0.0,0.0,94,0.00,,,0.00,weatherlink.com 1.10,2013-05-01 07:45:00,
2013-05-01 04:00:00,52.9,52.0,30.15,ENE,68,0.0,0.0,95,0.00,,,0.00,weatherlink.com 1.10,2013-05-01 08:00:00,
2013-05-01 04:15:00,52.8,52.0,30.15,ENE,68,0.0,0.0,95,0.00,,,0.00,weatherlink.com 1.10,2013-05-01 08:15:00,
2013-05-01 04:30:00,52.8,52.0,30.15,ENE,68,0.0,0.0,95,0.00,,,0.00,weatherlink.com 1.10,2013-05-01 08:30:00,
2013-05-01 04:45:00,52.9,52.0,30.15,ENE,68,0.0,0.0,96,0.00,,,0.00,weatherlink.com 1.10,2013-05-01 08:45:00,
2013-05-01 05:00:00,53.5,52.0,30.15,ENE,68,0.0,0.0,96,0.00,,,0.00,weatherlink.com 1.10,2013-05-01 09:00:00,
2013-05-01 05:15:00,54.1,53.0,30.16,ENE,68,0.0,2.0,97,0.00,,,0.00,weatherlink.com 1.10,2013-05-01 09:15:00,
2013-05-01 05:30:00,54.4,53.0,30.16,ENE,68,0.0,1.0,96,0.00,,,0.00,weatherlink.com 1.10,2013-05-01 09:30:00,
2013-05-01 05:45:00,54.5,53.0,30.16,ENE,64,1.0,3.0,96,0.00,,,0.00,weatherlink.com 1.10,2013-05-01 09:45:00,
2013-05-01 06:00:00,54.7,53.0,30.17,ENE,64,0.0,0.0,95,0.00,,,0.00,weatherlink.com 1.10,2013-05-01 10:00:00,
2013-05-01 06:15:00,54.7,53.0,30.17,ENE,61,1.0,3.0,95,0.00,,,0.00,weatherlink.com 1.10,2013-05-01 10:15:00,
2013-05-01 06:30:00,54.8,53.0,30.18,NNE,17,0.0,1.0,95,0.00,,,0.00,weatherlink.com 1.10,2013-05-01 10:30:00,
2013-05-01 06:45:00,55.0,53.0,30.18,NE,53,2.0,3.0,94,0.00,,,0.00,weatherlink.com 1.10,2013-05-01 10:45:00,
2013-05-01 07:00:00,55.1,54.0,30.18,NE,43,0.0,3.0,94,0.00,,,0.00,weatherlink.com 1.10,2013-05-01 11:00:00,
2013-05-01 07:16:00,55.4,54.0,30.18,NW,306,0.0,4.0,93,0.00,,,0.00,weatherlink.com 1.10,2013-05-01 11:16:00,
2013-05-01 07:31:00,55.7,54.0,30.18,West,276,0.0,2.0,93,0.00,,,0.00,weatherlink.com 1.10,2013-05-01 11:31:00,
2013-05-01 07:46:00,56.3,54.0,30.19,East,82,0.0,3.0,92,0.00,,,0.00,weatherlink.com 1.10,2013-05-01 11:46:00,
2013-05-01 08:01:00,56.9,54.0,30.19,NE,49,0.0,3.0,91,0.00,,,0.00,weatherlink.com 1.10,2013-05-01 12:01:00,
2013-05-01 08:16:00,57.5,54.0,30.19,North,355,0.0,2.0,89,0.00,,,0.00,weatherlink.com 1.10,2013-05-01 12:16:00,
2013-05-01 08:31:00,58.0,55.0,30.20,ENE,66,1.0,3.0,88,0.00,,,0.00,weatherlink.com 1.10,2013-05-01 12:31:00,
2013-05-01 08:46:00,58.4,54.0,30.20,NE,54,0.0,6.0,86,0.00,,,0.00,weatherlink.com 1.10,2013-05-01 12:46:00,
2013-05-01 09:01:00,59.2,55.0,30.20,East,101,0.0,4.0,85,0.00,,,0.00,weatherlink.com 1.10,2013-05-01 13:01:00,
2013-05-01 09:16:00,59.6,54.0,30.21,NE,50,0.0,4.0,83,0.00,,,0.00,weatherlink.com 1.10,2013-05-01 13:16:00,
2013-05-01 09:31:00,59.6,55.0,30.21,North,355,2.0,3.0,84,0.00,,,0.00,weatherlink.com 1.10,2013-05-01 13:31:00,
2013-05-01 09:46:00,59.8,55.0,30.21,East,97,1.0,7.0,84,0.00,,,0.00,weatherlink.com 1.10,2013-05-01 13:46:00,
2013-05-01 10:01:00,60.4,55.0,30.21,ENE,69,0.0,2.0,82,0.00,,,0.00,weatherlink.com 1.10,2013-05-01 14:01:00,
2013-05-01 10:16:00,60.7,55.0,30.22,WNW,284,0.0,5.0,80,0.00,,,0.00,weatherlink.com 1.10,2013-05-01 14:16:00,
2013-05-01 10:31:00,60.5,55.0,30.22,ENE,75,0.0,3.0,81,0.00,,,0.00,weatherlink.com 1.10,2013-05-01 14:31:00,
2013-05-01 10:46:00,60.4,55.0,30.23,ESE,117,0.0,3.0,82,0.00,,,0.00,weatherlink.com 1.10,2013-05-01 14:46:00,
2013-05-01 11:01:00,60.4,55.0,30.24,NE,46,0.0,3.0,82,0.00,,,0.00,weatherlink.com 1.10,2013-05-01 15:01:00,
2013-05-01 11:16:00,61.2,55.0,30.25,East,94,1.0,5.0,81,0.00,,,0.00,weatherlink.com 1.10,2013-05-01 15:16:00,
2013-05-01 11:31:00,62.0,55.0,30.24,ENE,57,1.0,3.0,78,0.00,,,0.00,weatherlink.com 1.10,2013-05-01 15:31:00,
2013-05-01 11:46:00,62.7,55.0,30.24,ENE,77,0.0,4.0,75,0.00,,,0.00,weatherlink.com 1.10,2013-05-01 15:46:00,
2013-05-01 12:01:00,62.6,55.0,30.24,ENE,65,1.0,6.0,76,0.00,,,0.00,weatherlink.com 1.10,2013-05-01 16:01:00,
2013-05-01 12:16:00,62.4,54.0,30.24,ENE,64,1.0,4.0,75,0.00,,,0.00,weatherlink.com 1.10,2013-05-01 16:16:00,
2013-05-01 12:31:00,61.8,55.0,30.23,NNW,339,0.0,4.0,78,0.00,,,0.00,weatherlink.com 1.10,2013-05-01 16:31:00,
2013-05-01 12:46:00,61.3,55.0,30.23,North,11,0.0,9.0,81,0.00,,,0.00,weatherlink.com 1.10,2013-05-01 16:46:00,
2013-05-01 13:01:00,62.9,55.0,30.21,NE,51,4.0,9.0,75,0.00,,,0.00,weatherlink.com 1.10,2013-05-01 17:01:00,
2013-05-01 13:16:00,63.1,55.0,30.21,NE,47,1.0,6.0,76,0.00,,,0.00,weatherlink.com 1.10,2013-05-01 17:16:00,
2013-05-01 13:32:00,63.2,55.0,30.21,East,82,5.0,6.0,75,0.00,,,0.00,weatherlink.com 1.10,2013-05-01 17:32:00,
2013-05-01 13:46:00,64.3,56.0,30.20,NNE,24,2.0,4.0,74,0.00,,,0.00,weatherlink.com 1.10,2013-05-01 17:46:00,
2013-05-01 14:01:00,64.0,56.0,30.21,ENE,63,0.0,6.0,74,0.00,,,0.00,weatherlink.com 1.10,2013-05-01 18:01:00,
2013-05-01 14:16:00,64.2,56.0,30.20,East,92,0.0,4.0,75,0.00,,,0.00,weatherlink.com 1.10,2013-05-01 18:16:00,
2013-05-01 14:31:00,63.9,56.0,30.21,ENE,65,4.0,4.0,75,0.00,,,0.00,weatherlink.com 1.10,2013-05-01 18:31:00,
2013-05-01 14:46:00,63.9,56.0,30.21,East,86,2.0,3.0,75,0.00,,,0.00,weatherlink.com 1.10,2013-05-01 18:46:00,
2013-05-01 15:01:00,64.0,56.0,30.21,ENE,63,0.0,3.0,75,0.00,,,0.00,weatherlink.com 1.10,2013-05-01 19:01:00,
2013-05-01 15:16:00,64.0,56.0,30.21,NE,51,0.0,3.0,75,0.00,,,0.00,weatherlink.com 1.10,2013-05-01 19:16:00,
2013-05-01 15:31:00,63.9,56.0,30.21,ENE,70,0.0,2.0,75,0.00,,,0.00,weatherlink.com 1.10,2013-05-01 19:31:00,
2013-05-01 15:46:00,63.7,56.0,30.21,NE,44,0.0,2.0,76,0.00,,,0.00,weatherlink.com 1.10,2013-05-01 19:46:00,
2013-05-01 16:01:00,64.3,57.0,30.21,NE,44,0.0,1.0,76,0.00,,,0.00,weatherlink.com 1.10,2013-05-01 20:01:00,
2013-05-01 16:16:00,64.3,56.0,30.20,East,88,1.0,4.0,74,0.00,,,0.00,weatherlink.com 1.10,2013-05-01 20:16:00,
2013-05-01 16:31:00,63.7,56.0,30.20,ENE,76,0.0,3.0,75,0.00,,,0.00,weatherlink.com 1.10,2013-05-01 20:31:00,
2013-05-01 16:46:00,63.4,56.0,30.20,West,273,0.0,4.0,76,0.00,,,0.00,weatherlink.com 1.10,2013-05-01 20:46:00,
2013-05-01 17:01:00,63.2,56.0,30.21,NE,44,0.0,4.0,76,0.00,,,0.00,weatherlink.com 1.10,2013-05-01 21:01:00,
2013-05-01 17:16:00,62.9,56.0,30.21,East,101,0.0,3.0,77,0.00,,,0.00,weatherlink.com 1.10,2013-05-01 21:16:00,
2013-05-01 17:31:00,62.7,55.0,30.21,ENE,71,0.0,1.0,77,0.00,,,0.00,weatherlink.com 1.10,2013-05-01 21:31:00,
2013-05-01 17:46:00,62.6,56.0,30.21,ENE,62,0.0,3.0,78,0.00,,,0.00,weatherlink.com 1.10,2013-05-01 21:46:00,
2013-05-01 18:01:00,62.4,56.0,30.21,NE,34,0.0,4.0,79,0.00,,,0.00,weatherlink.com 1.10,2013-05-01 22:01:00,
2013-05-01 18:16:00,62.3,56.0,30.21,NE,39,0.0,1.0,80,0.00,,,0.00,weatherlink.com 1.10,2013-05-01 22:16:00,
2013-05-01 18:31:00,62.1,56.0,30.21,NNE,28,0.0,4.0,80,0.00,,,0.00,weatherlink.com 1.10,2013-05-01 22:31:00,
2013-05-01 18:46:00,62.0,56.0,30.21,ENE,58,0.0,2.0,82,0.00,,,0.00,weatherlink.com 1.10,2013-05-01 22:46:00,
2013-05-01 19:01:00,61.6,56.0,30.21,ESE,109,2.0,3.0,83,0.00,,,0.00,weatherlink.com 1.10,2013-05-01 23:01:00,
2013-05-01 19:16:00,61.2,56.0,30.20,South,171,0.0,4.0,84,0.00,,,0.00,weatherlink.com 1.10,2013-05-01 23:16:00,
2013-05-01 19:31:00,61.0,56.0,30.21,SE,138,0.0,2.0,84,0.00,,,0.00,weatherlink.com 1.10,2013-05-01 23:31:00,
2013-05-01 19:46:00,61.0,57.0,30.21,SE,138,0.0,0.0,85,0.00,,,0.00,weatherlink.com 1.10,2013-05-01 23:46:00,
2013-05-01 20:01:00,60.9,56.0,30.21,NE,38,0.0,2.0,84,0.00,,,0.00,weatherlink.com 1.10,2013-05-02 00:01:00,
2013-05-01 20:16:00,60.7,56.0,30.22,East,88,0.0,1.0,85,0.00,,,0.00,weatherlink.com 1.10,2013-05-02 00:16:00,
2013-05-01 20:31:00,60.5,56.0,30.23,NNE,15,0.0,2.0,85,0.00,,,0.00,weatherlink.com 1.10,2013-05-02 00:31:00,
2013-05-01 20:46:00,60.4,56.0,30.23,NE,40,0.0,2.0,85,0.00,,,0.00,weatherlink.com 1.10,2013-05-02 00:46:00,
2013-05-01 21:01:00,60.2,56.0,30.23,NNE,14,0.0,2.0,86,0.00,,,0.00,weatherlink.com 1.10,2013-05-02 01:01:00,
2013-05-01 21:16:00,60.1,56.0,30.23,ENE,76,2.0,5.0,86,0.00,,,0.00,weatherlink.com 1.10,2013-05-02 01:16:00,
2013-05-01 21:31:00,59.6,56.0,30.24,NE,42,0.0,2.0,88,0.00,,,0.00,weatherlink.com 1.10,2013-05-02 01:31:00,
2013-05-01 21:46:00,59.2,56.0,30.24,North,11,0.0,1.0,89,0.00,,,0.00,weatherlink.com 1.10,2013-05-02 01:46:00,
2013-05-01 22:01:00,58.9,56.0,30.24,ESE,109,0.0,3.0,90,0.00,,,0.00,weatherlink.com 1.10,2013-05-02 02:01:00,
2013-05-01 22:16:00,58.6,55.0,30.24,ENE,72,0.0,3.0,89,0.00,,,0.00,weatherlink.com 1.10,2013-05-02 02:16:00,
2013-05-01 22:31:00,58.4,55.0,30.25,East,85,0.0,3.0,89,0.00,,,0.00,weatherlink.com 1.10,2013-05-02 02:31:00,
2013-05-01 22:46:00,58.4,55.0,30.26,ENE,57,0.0,2.0,89,0.00,,,0.00,weatherlink.com 1.10,2013-05-02 02:46:00,
2013-05-01 23:01:00,58.4,55.0,30.26,ENE,78,0.0,2.0,88,0.00,,,0.00,weatherlink.com 1.10,2013-05-02 03:01:00,
2013-05-01 23:16:00,58.4,55.0,30.26,NE,49,0.0,2.0,89,0.00,,,0.00,weatherlink.com 1.10,2013-05-02 03:16:00,
2013-05-01 23:31:00,58.4,55.0,30.25,ESE,111,0.0,2.0,89,0.00,,,0.00,weatherlink.com 1.10,2013-05-02 03:31:00,
2013-05-01 23:47:00,58.3,56.0,30.26,ESE,111,0.0,0.0,90,0.00,,,0.00,weatherlink.com 1.10,2013-05-02 03:47:00,